FAB1398 SBSJ-SBSJ

Flight info

Callsign FAB1398
Flight time 0h 43m
Altitude 14500
Route DCT SBGW DCT
Aircraft TUCA/L-SDFG/S

Departure

Time 2026-04-23 14:14
Airport Professor Urbano Ernesto Stumpf Airport (SBSJ)

Arrival

Time 2026-04-23 14:57
Airport Professor Urbano Ernesto Stumpf Airport (SBSJ)
Time Latitude Longitude Altitude Speed Heading
2026-04-23 14:07 -23.22314 -45.86502 2125 ft 0 kts 44°
2026-04-23 14:10 -23.22300 -45.86519 2125 ft 13 kts 275°
2026-04-23 14:10 -23.22254 -45.86629 2125 ft 12 kts 316°
2026-04-23 14:11 -23.22192 -45.86694 2125 ft 15 kts 315°
2026-04-23 14:11 -23.22121 -45.86779 2125 ft 14 kts 307°
2026-04-23 14:11 -23.22056 -45.86878 2125 ft 18 kts 304°
2026-04-23 14:11 -23.21983 -45.86991 2125 ft 17 kts 304°
2026-04-23 14:12 -23.21923 -45.87085 2125 ft 11 kts 299°
2026-04-23 14:12 -23.21916 -45.87116 2125 ft 0 kts 259°
2026-04-23 14:13 -23.21917 -45.87119 2125 ft 4 kts 259°
2026-04-23 14:13 -23.21957 -45.87165 2125 ft 13 kts 189°
2026-04-23 14:13 -23.22015 -45.87143 2125 ft 2 kts 135°
2026-04-23 14:13 -23.22015 -45.87142 2125 ft 0 kts 135°
2026-04-23 14:14 -23.22166 -45.86981 2125 ft 101 kts 135°
2026-04-23 14:14 -23.22865 -45.86235 2325 ft 157 kts 137°
2026-04-23 14:14 -23.23633 -45.85405 2559 ft 155 kts 136°
2026-04-23 14:14 -23.24315 -45.84541 2998 ft 142 kts 115°
2026-04-23 14:15 -23.24263 -45.83541 3455 ft 141 kts 52°
2026-04-23 14:15 -23.23317 -45.82995 3247 ft 174 kts 13°
2026-04-23 14:15 -23.22110 -45.82956 3294 ft 183 kts 352°
2026-04-23 14:15 -23.21296 -45.83321 3072 ft 199 kts 333°
2026-04-23 14:16 -23.20164 -45.84178 3176 ft 192 kts 328°
2026-04-23 14:16 -23.19105 -45.85047 3308 ft 191 kts 324°
2026-04-23 14:16 -23.18093 -45.86037 3250 ft 200 kts 319°
2026-04-23 14:16 -23.17063 -45.87033 3360 ft 187 kts 344°
2026-04-23 14:17 -23.15917 -45.86799 3825 ft 153 kts 34°
2026-04-23 14:17 -23.15028 -45.86174 4221 ft 157 kts 34°
2026-04-23 14:17 -23.14106 -45.85503 4476 ft 162 kts 37°
2026-04-23 14:17 -23.13203 -45.84785 4728 ft 164 kts 38°
2026-04-23 14:18 -23.12276 -45.84045 4982 ft 166 kts 39°
2026-04-23 14:18 -23.11472 -45.83161 5234 ft 164 kts 57°
2026-04-23 14:18 -23.10736 -45.82229 5491 ft 165 kts 38°
2026-04-23 14:18 -23.09821 -45.81473 5766 ft 165 kts 42°
2026-04-23 14:19 -23.08953 -45.80656 6021 ft 165 kts 45°
2026-04-23 14:19 -23.08153 -45.79762 6275 ft 165 kts 51°
2026-04-23 14:19 -23.07429 -45.78814 6524 ft 165 kts 54°
2026-04-23 14:19 -23.06785 -45.77788 6773 ft 164 kts 64°
2026-04-23 14:20 -23.06388 -45.76640 7030 ft 162 kts 75°
2026-04-23 14:20 -23.06042 -45.75404 7305 ft 180 kts 76°
2026-04-23 14:20 -23.05686 -45.74096 7656 ft 180 kts 76°
2026-04-23 14:20 -23.05359 -45.72765 8039 ft 184 kts 78°
2026-04-23 14:21 -23.04974 -45.71430 8418 ft 186 kts 71°
2026-04-23 14:21 -23.04465 -45.70152 8792 ft 183 kts 68°
2026-04-23 14:21 -23.03888 -45.68916 9167 ft 185 kts 65°
2026-04-23 14:21 -23.03244 -45.67700 9544 ft 186 kts 62°
2026-04-23 14:22 -23.02555 -45.66508 9918 ft 187 kts 60°
2026-04-23 14:22 -23.01892 -45.65299 10290 ft 185 kts 68°
2026-04-23 14:22 -23.01408 -45.64012 10670 ft 183 kts 74°
2026-04-23 14:22 -23.01043 -45.62763 11025 ft 182 kts 78°
2026-04-23 14:23 -23.00740 -45.61579 11361 ft 181 kts 79°
2026-04-23 14:23 -23.00387 -45.60271 11731 ft 182 kts 74°
2026-04-23 14:23 -22.99976 -45.58947 11931 ft 187 kts 76°
2026-04-23 14:23 -22.99560 -45.57624 12299 ft 184 kts 75°
2026-04-23 14:24 -22.99124 -45.56332 12667 ft 181 kts 74°
2026-04-23 14:24 -22.98566 -45.54966 11837 ft 230 kts 77°
2026-04-23 14:24 -22.98073 -45.53407 12216 ft 210 kts 72°
2026-04-23 14:24 -22.97468 -45.52014 12582 ft 199 kts 66°
2026-04-23 14:25 -22.96773 -45.50744 12948 ft 193 kts 61°
2026-04-23 14:25 -22.96007 -45.49572 13316 ft 189 kts 57°
2026-04-23 14:25 -22.95196 -45.48468 13686 ft 187 kts 53°
2026-04-23 14:25 -22.94335 -45.47406 14063 ft 187 kts 53°
2026-04-23 14:26 -22.93511 -45.46301 14353 ft 192 kts 55°
2026-04-23 14:26 -22.92669 -45.45118 14465 ft 204 kts 56°
2026-04-23 14:26 -22.91788 -45.43860 14486 ft 214 kts 56°
2026-04-23 14:26 -22.91125 -45.42414 14386 ft 217 kts 89°
2026-04-23 14:27 -22.91886 -45.41168 13569 ft 228 kts 170°
2026-04-23 14:27 -22.93133 -45.40941 13643 ft 216 kts 91°
2026-04-23 14:27 -22.92413 -45.40370 13178 ft 244 kts 347°
2026-04-23 14:27 -22.91962 -45.40575 12900 ft 253 kts 326°
2026-04-23 14:28 -22.89616 -45.39900 13371 ft 227 kts 94°
2026-04-23 14:28 -22.90043 -45.38294 13308 ft 221 kts 102°
2026-04-23 14:28 -22.89818 -45.36969 13801 ft 212 kts 69°
2026-04-23 14:28 -22.88916 -45.35474 13636 ft 181 kts 97°
2026-04-23 14:29 -22.89966 -45.35258 10629 ft 277 kts 221°
2026-04-23 14:29 -22.90398 -45.37164 11276 ft 177 kts 262°
2026-04-23 14:29 -22.90433 -45.37786 11861 ft 149 kts 261°
2026-04-23 14:29 -22.90429 -45.38698 12053 ft 168 kts 288°
2026-04-23 14:30 -22.89219 -45.39246 11398 ft 234 kts 15°
2026-04-23 14:30 -22.88286 -45.37908 11078 ft 233 kts 77°
2026-04-23 14:30 -22.87732 -45.36354 11401 ft 216 kts 68°
2026-04-23 14:30 -22.87101 -45.34882 11576 ft 214 kts 71°
2026-04-23 14:31 -22.86616 -45.33372 11765 ft 211 kts 75°
2026-04-23 14:31 -22.86118 -45.31900 11943 ft 211 kts 73°
2026-04-23 14:31 -22.85620 -45.30406 12118 ft 210 kts 75°
2026-04-23 14:31 -22.85148 -45.28907 12290 ft 210 kts 76°
2026-04-23 14:32 -22.84652 -45.27419 12469 ft 212 kts 69°
2026-04-23 14:32 -22.83723 -45.26147 12649 ft 222 kts 44°
2026-04-23 14:32 -22.82972 -45.24730 12868 ft 217 kts 72°
2026-04-23 14:32 -22.82604 -45.23144 13062 ft 217 kts 85°
2026-04-23 14:33 -22.82390 -45.21503 12893 ft 232 kts 86°
2026-04-23 14:33 -22.82183 -45.19693 12199 ft 162 kts 90°
2026-04-23 14:33 -22.82174 -45.20081 12422 ft 17 kts 76°
2026-04-23 14:33 -22.81836 -45.18622 10160 ft 197 kts 58°
2026-04-23 14:34 -22.81410 -45.18995 10635 ft 82 kts 190°
2026-04-23 14:34 -22.82455 -45.18348 8512 ft 204 kts 185°
2026-04-23 14:34 -22.82403 -45.18883 9320 ft 91 kts 357°
2026-04-23 14:34 -22.83504 -45.18512 6582 ft 218 kts 163°
2026-04-23 14:35 -22.84241 -45.18384 7804 ft 55 kts 179°
2026-04-23 14:35 -22.83622 -45.18503 5685 ft 185 kts 352°
2026-04-23 14:35 -22.82564 -45.19540 3743 ft 235 kts 301°
2026-04-23 14:35 -22.82014 -45.21022 3396 ft 195 kts 284°
2026-04-23 14:36 -22.82350 -45.22259 2870 ft 162 kts 208°
2026-04-23 14:36 -22.83125 -45.21821 2770 ft 139 kts 109°
2026-04-23 14:36 -22.82818 -45.20800 2310 ft 157 kts 47°
2026-04-23 14:36 -22.81876 -45.20463 2180 ft 136 kts
2026-04-23 14:37 -22.80911 -45.20472 1952 ft 141 kts 348°
2026-04-23 14:37 -22.79954 -45.20487 1835 ft 124 kts
2026-04-23 14:37 -22.79160 -45.20509 1962 ft 126 kts 359°
2026-04-23 14:37 -22.78195 -45.20667 2626 ft 151 kts 343°
2026-04-23 14:38 -22.77331 -45.21528 2683 ft 178 kts 296°
2026-04-23 14:38 -22.77593 -45.22628 3091 ft 161 kts 208°
2026-04-23 14:38 -22.78697 -45.23072 3133 ft 177 kts 193°
2026-04-23 14:38 -22.79931 -45.23411 3173 ft 178 kts 185°
2026-04-23 14:39 -22.81089 -45.23087 2896 ft 186 kts 137°
2026-04-23 14:39 -22.81648 -45.21911 2694 ft 170 kts 103°
2026-04-23 14:39 -22.81518 -45.20842 2538 ft 126 kts 63°
2026-04-23 14:39 -22.80752 -45.20435 2081 ft 113 kts
2026-04-23 14:40 -22.79994 -45.20475 1812 ft 104 kts
2026-04-23 14:40 -22.79340 -45.20499 1811 ft 92 kts
2026-04-23 14:40 -22.78542 -45.20691 2281 ft 145 kts 336°
2026-04-23 14:40 -22.77801 -45.21622 2850 ft 185 kts 288°
2026-04-23 14:41 -22.78029 -45.23038 3184 ft 201 kts 242°
2026-04-23 14:41 -22.78567 -45.24412 3348 ft 190 kts 249°
2026-04-23 14:41 -22.78981 -45.25699 3706 ft 173 kts 249°
2026-04-23 14:41 -22.79372 -45.26893 4063 ft 164 kts 250°
2026-04-23 14:42 -22.79735 -45.28034 4422 ft 157 kts 250°
2026-04-23 14:42 -22.80102 -45.29127 4784 ft 152 kts 248°
2026-04-23 14:42 -22.80461 -45.30189 5152 ft 148 kts 249°
2026-04-23 14:42 -22.80967 -45.31135 5394 ft 149 kts 214°
2026-04-23 14:43 -22.81859 -45.31586 5771 ft 140 kts 198°
2026-04-23 14:43 -22.82754 -45.31965 6141 ft 138 kts 203°
2026-04-23 14:43 -22.83402 -45.32725 6518 ft 139 kts 237°
2026-04-23 14:43 -22.83786 -45.33725 6884 ft 152 kts 246°
2026-04-23 14:44 -22.84267 -45.34839 7003 ft 173 kts 233°
2026-04-23 14:44 -22.85146 -45.35761 7011 ft 180 kts 207°
2026-04-23 14:44 -22.86283 -45.36353 7017 ft 183 kts 202°
2026-04-23 14:44 -22.87226 -45.36844 6989 ft 185 kts 206°
2026-04-23 14:45 -22.88364 -45.37516 6929 ft 187 kts 210°
2026-04-23 14:45 -22.89442 -45.38223 7147 ft 176 kts 212°
2026-04-23 14:45 -22.90452 -45.38929 7377 ft 170 kts 213°
2026-04-23 14:45 -22.91388 -45.39683 7607 ft 166 kts 220°
2026-04-23 14:46 -22.92264 -45.40486 7821 ft 165 kts 219°
2026-04-23 14:46 -22.93134 -45.41294 7950 ft 169 kts 221°
2026-04-23 14:46 -22.94024 -45.42160 7997 ft 175 kts 222°
2026-04-23 14:46 -22.94932 -45.43076 8008 ft 179 kts 225°
2026-04-23 14:47 -22.95764 -45.44097 8004 ft 182 kts 231°
2026-04-23 14:47 -22.96527 -45.45199 8007 ft 183 kts 233°
2026-04-23 14:47 -22.97284 -45.46316 8002 ft 184 kts 233°
2026-04-23 14:47 -22.98034 -45.47421 8001 ft 184 kts 233°
2026-04-23 14:48 -22.98799 -45.48537 8000 ft 184 kts 233°
2026-04-23 14:48 -22.99528 -45.49681 7978 ft 186 kts 238°
2026-04-23 14:48 -23.00182 -45.50931 7783 ft 193 kts 242°
2026-04-23 14:48 -23.00793 -45.52229 7580 ft 193 kts 243°
2026-04-23 14:49 -23.01404 -45.53523 7373 ft 193 kts 243°
2026-04-23 14:49 -23.02022 -45.54813 7165 ft 192 kts 242°
2026-04-23 14:49 -23.02651 -45.56103 6957 ft 192 kts 242°
2026-04-23 14:49 -23.03287 -45.57388 6672 ft 196 kts 241°
2026-04-23 14:50 -23.03954 -45.58700 6297 ft 201 kts 241°
2026-04-23 14:50 -23.04646 -45.60029 5921 ft 203 kts 240°
2026-04-23 14:50 -23.05360 -45.61359 5547 ft 205 kts 239°
2026-04-23 14:50 -23.06124 -45.62667 5190 ft 204 kts 237°
2026-04-23 14:51 -23.06903 -45.63941 4919 ft 201 kts 236°
2026-04-23 14:51 -23.07671 -45.65171 4786 ft 193 kts 236°
2026-04-23 14:51 -23.08399 -45.66434 4444 ft 196 kts 239°
2026-04-23 14:51 -23.09095 -45.67678 4316 ft 190 kts 238°
2026-04-23 14:52 -23.09771 -45.68879 4190 ft 187 kts 238°
2026-04-23 14:52 -23.10461 -45.70095 4062 ft 186 kts 238°
2026-04-23 14:52 -23.11133 -45.71268 3938 ft 185 kts 238°
2026-04-23 14:52 -23.11799 -45.72451 3829 ft 184 kts 239°
2026-04-23 14:53 -23.12422 -45.73672 3594 ft 189 kts 243°
2026-04-23 14:53 -23.13015 -45.74944 3443 ft 187 kts 243°
2026-04-23 14:53 -23.13676 -45.76147 3362 ft 182 kts 233°
2026-04-23 14:53 -23.14558 -45.77128 3270 ft 181 kts 220°
2026-04-23 14:54 -23.15482 -45.78048 3218 ft 178 kts 228°
2026-04-23 14:54 -23.16285 -45.79063 3202 ft 176 kts 231°
2026-04-23 14:54 -23.17006 -45.80133 3200 ft 175 kts 234°
2026-04-23 14:54 -23.17774 -45.81132 3126 ft 177 kts 220°
2026-04-23 14:55 -23.18730 -45.81944 3184 ft 173 kts 217°
2026-04-23 14:55 -23.19702 -45.82719 3148 ft 174 kts 217°
2026-04-23 14:55 -23.20427 -45.83704 3166 ft 162 kts 246°
2026-04-23 14:55 -23.20458 -45.84853 3228 ft 151 kts 285°
2026-04-23 14:56 -23.20051 -45.85828 3365 ft 136 kts 296°
2026-04-23 14:56 -23.19671 -45.86768 3219 ft 142 kts 285°
2026-04-23 14:56 -23.19934 -45.87660 2896 ft 128 kts 224°
2026-04-23 14:56 -23.20732 -45.87971 2634 ft 118 kts 185°
2026-04-23 14:57 -23.21444 -45.87725 2286 ft 96 kts 146°
2026-04-23 14:57 -23.21906 -45.87247 2199 ft 101 kts 135°
2026-04-23 14:57 -23.22333 -45.86790 2125 ft 69 kts 135°
2026-04-23 14:57 -23.22590 -45.86527 2125 ft 34 kts 137°
2026-04-23 14:58 -23.22728 -45.86388 2125 ft 21 kts 137°
2026-04-23 14:58 -23.22810 -45.86301 2125 ft 12 kts 132°
2026-04-23 14:58 -23.22893 -45.86200 2125 ft 29 kts 131°
2026-04-23 14:58 -23.23053 -45.86019 2125 ft 32 kts 134°
2026-04-23 14:59 -23.23044 -45.85905 2125 ft 17 kts 44°
2026-04-23 14:59 -23.22951 -45.85872 2125 ft 17 kts 313°
2026-04-23 14:59 -23.22841 -45.85992 2125 ft 25 kts 315°
2026-04-23 14:59 -23.22712 -45.86130 2125 ft 26 kts 315°
2026-04-23 15:00 -23.22611 -45.86241 2125 ft 17 kts 315°
2026-04-23 15:00 -23.22515 -45.86346 2125 ft 18 kts 315°
2026-04-23 15:00 -23.22435 -45.86433 2125 ft 17 kts 315°
2026-04-23 15:00 -23.22360 -45.86515 2125 ft 12 kts 315°
2026-04-23 15:01 -23.22318 -45.86527 2125 ft 7 kts 311°
2026-04-23 15:01 -23.22287 -45.86533 2125 ft 2 kts 47°
2026-04-23 15:01 -23.22286 -45.86532 2125 ft 0 kts 47°